Wind_Speed
81 79 83 77 70 65 58 59 61 58 53 59 50 49 41 43 39 40 37 36 32 30 29 30 32 39 40 38 36 36 35 36 38 37 37 38 37 40 42 44 43 43 45 38
63 79 75 72 69 67 65 54 48 54 46 60 53 50 42 43 40 39 39 38 34 32 31 30 33 32 35 34 37 37 38 39 39 39 39 37 37 40 40 41 41 40 38 37
45 65 70 73 71 69 67 59 45 45 55 58 54 49 45 45 43 42 41 39 37 34 35 35 28 32 34 33 36 38 39 37 38 37 35 36 36 38 39 37 37 36 37 40
31 44 65 72 73 68 67 59 45 47 46 58 50 50 50 49 47 43 41 41 41 38 38 39 34 32 34 34 35 36 36 36 35 31 32 33 34 36 35 35 37 40 42 45
27 38 48 66 71 70 62 54 52 39 38 34 39 40 43 47 46 44 40 40 42 42 40 39 37 34 34 34 33 33 33 34 33 32 31 31 32 33 36 37 40 42 45 46
37 29 40 37 56 62 49 41 45 40 38 38 33 48 39 44 49 46 44 42 41 41 41 38 39 37 32 31 33 31 31 31 32 31 30 31 33 37 38 39 40 41 43 45
19 37 34 44 28 54 49 46 44 41 37 45 43 45 28 35 44 46 41 41 44 49 42 41 37 36 34 35 34 34 32 31 29 29 31 31 34 37 39 41 40 42 43 42
13 40 42 40 41 45 55 54 55 59 63 54 34 43 39 37 48 46 42 46 45 34 38 40 41 33 33 35 35 35 36 33 32 29 30 32 34 36 37 39 40 40 38 39
3 24 32 34 42 43 55 55 57 38 40 29 33 35 43 50 45 46 50 43 37 43 37 31 34 37 36 34 36 37 36 34 32 31 32 33 33 34 37 37 37 34 35 34
3 24 27 30 32 42 44 58 53 42 36 37 35 42 46 56 54 48 45 42 42 39 39 39 38 36 34 34 36 37 37 35 32 31 31 31 32 33 33 34 31 31 31 33
13 12 22 32 43 41 42 46 49 41 30 41 34 34 37 48 52 50 45 45 41 39 38 37 35 34 36 37 37 37 35 31 30 29 28 28 28 28 30 31 30 29 33 35
9 17 17 14 29 40 43 48 50 49 39 45 30 44 37 47 48 45 44 41 40 39 38 36 36 37 39 38 36 34 31 29 28 26 25 25 26 28 31 30 28 32 34 34
9 16 21 29 35 44 45 47 49 42 35 38 35 42 49 48 43 43 42 38 36 35 35 36 38 39 38 35 34 31 29 28 27 26 25 25 28 30 28 29 32 34 34 35
9 17 18 20 26 36 38 43 55 45 35 39 32 40 41 35 42 40 40 38 37 37 38 39 38 37 36 33 31 31 30 29 28 28 28 30 29 28 28 33 35 35 36 38
15 11 17 31 35 37 41 46 46 40 47 24 27 27 35 32 35 38 37 37 37 37 37 36 35 34 34 33 33 31 30 30 30 29 31 30 30 31 32 31 35 35 36 37
16 12 14 20 29 35 39 45 34 36 40 43 36 34 31 30 39 40 39 39 39 37 36 34 35 34 34 34 32 31 31 30 30 28 27 27 28 28 29 31 34 33 36 37
9 13 14 30 23 30 35 45 41 36 31 37 30 39 32 36 41 41 41 41 40 39 39 37 35 35 34 32 30 29 28 28 29 32 31 27 27 27 28 28 31 33 34 36
22 22 17 18 29 41 36 46 43 34 38 35 28 34 34 39 45 46 45 42 41 40 37 36 36 35 31 29 26 25 26 28 30 25 26 26 26 26 27 30 32 33 36 37
15 14 10 14 29 35 37 39 33 41 32 27 33 35 41 44 42 45 45 43 40 37 35 34 33 31 28 27 26 25 24 21 20 21 23 24 25 29 30 31 33 33 34 33
18 16 15 23 27 39 43 47 48 28 22 38 36 36 38 40 40 41 43 41 39 36 35 33 31 32 29 28 29 28 23 21 21 21 22 22 25 26 28 29 28 29 33 36
19 25 20 17 18 24 29 44 42 33 19 30 37 35 40 46 42 42 41 39 36 34 35 30 27 26 27 28 26 26 21 22 24 25 24 21 19 19 20 24 27 29 32 36
14 11 19 15 17 34 20 33 39 20 28 27 35 39 36 32 38 38 37 36 39 33 30 27 28 29 29 25 19 23 22 20 17 19 18 16 17 18 20 23 25 28 31 36
13 12 18 15 15 22 23 32 38 26 32 24 29 26 23 22 24 24 27 26 25 25 24 25 29 32 32 29 26 27 28 28 20 20 18 20 19 20 21 25 28 33 35 37
14 15 14 17 22 18 20 32 37 28 27 22 22 21 20 21 20 22 22 22 24 25 23 23 23 25 27 25 24 24 24 27 26 24 22 22 23 25 24 26 32 37 38 39
11 14 20 23 20 20 21 28 34 27 26 23 22 23 26 21 23 19 22 18 17 21 22 21 21 22 23 24 21 22 22 24 25 24 23 24 26 27 28 29 31 36 40 37
14 15 16 17 19 18 20 26 27 26 25 21 20 18 19 23 22 20 17 15 16 15 15 16 16 16 16 18 21 22 25 24 23 24 24 26 27 27 31 30 31 36 38 38
Wind_Direction
226 222 220 226 227 227 227 231 231 236 228 232 228 232 227 230 225 224 225 226 230 234 234 237 235 236 238 237 235 237 244 250 252 253 253 256 255 258 261 268 273 276 286 286
223 221 221 220 221 223 221 220 228 231 233 236 226 228 223 225 222 221 223 229 232 237 237 234 234 235 240 237 233 235 238 242 246 250 254 255 258 260 262 265 275 277 278 281
228 220 215 215 215 217 218 220 215 231 229 234 230 224 222 224 220 219 219 226 234 235 237 240 238 235 238 234 237 237 241 245 248 251 254 257 260 262 266 271 276 278 279 281
222 204 212 213 212 213 216 211 209 220 225 231 231 228 224 223 222 221 221 226 236 239 237 241 240 242 240 237 237 239 242 245 251 253 254 257 260 266 272 276 280 282 287 287
226 204 207 211 212 210 212 209 205 213 216 221 220 214 228 224 224 224 219 223 231 234 236 241 239 243 246 245 246 246 246 248 251 255 257 260 265 270 271 276 282 283 286 288
210 199 203 203 216 207 200 204 204 205 207 219 219 219 208 224 222 224 218 218 224 230 231 236 243 243 249 254 253 246 245 249 250 254 259 264 269 272 277 279 277 281 285 286
216 186 197 194 218 203 189 193 189 194 200 218 218 219 206 231 222 224 220 218 221 225 229 233 238 239 243 250 253 254 255 252 253 256 257 262 266 270 273 277 279 281 285 286
212 189 187 200 197 198 192 188 189 193 211 210 209 218 198 193 218 214 215 218 224 221 221 223 227 231 235 241 249 253 253 251 253 257 261 263 265 268 272 276 281 283 285 285
46 192 197 183 194 188 191 192 196 203 211 204 207 205 201 214 222 212 222 225 213 216 224 229 226 228 232 238 244 249 253 253 253 254 255 257 261 266 271 275 279 287 286 286
149 166 205 181 196 182 199 199 191 187 204 196 205 218 210 215 219 216 219 214 215 217 217 222 228 230 233 237 240 243 245 246 246 247 252 257 262 265 269 273 281 279 284 288
193 186 186 192 189 182 181 186 191 186 199 197 197 207 218 217 220 215 213 214 215 219 221 224 227 230 233 236 240 242 243 244 246 248 253 257 264 271 275 280 274 279 285 290
172 203 193 185 190 184 193 184 178 183 184 184 199 200 204 224 218 215 214 214 215 215 218 221 224 228 233 236 240 243 245 247 250 256 260 266 267 270 277 274 270 277 286 289
193 182 185 176 190 175 178 190 182 178 180 181 196 199 213 222 217 208 211 211 212 214 216 217 221 226 231 235 240 244 247 250 254 260 264 265 270 273 270 266 271 279 286 287
170 183 208 214 168 173 165 180 177 173 180 189 201 212 213 212 208 205 204 203 205 208 211 217 221 227 233 237 240 243 248 252 256 260 262 265 266 266 263 269 276 283 284 288
162 151 165 166 167 179 178 177 173 181 182 187 212 196 210 212 200 196 197 199 202 207 213 218 222 228 232 236 240 244 247 251 255 260 260 268 264 261 265 271 278 281 286 290
178 117 170 188 157 160 174 171 182 175 178 195 208 208 205 200 192 192 193 199 203 208 212 217 221 227 234 238 240 243 247 251 258 264 268 267 257 257 270 275 280 283 288 294
137 159 170 144 148 161 181 169 171 191 189 190 217 201 200 186 191 190 195 200 204 209 215 220 225 229 233 238 240 245 250 253 259 264 266 260 263 263 272 281 287 290 292 293
144 161 126 151 175 167 157 177 174 185 186 204 202 189 194 186 188 191 195 201 205 212 218 222 225 229 230 231 237 242 251 257 261 259 254 258 257 270 284 289 291 293 293 295
127 127 150 148 171 156 164 180 171 181 196 189 190 177 180 185 190 192 197 202 208 214 215 220 226 227 227 232 231 248 252 251 249 251 253 255 268 278 286 288 290 295 298 302
118 134 139 156 153 168 171 177 182 189 154 161 169 177 178 184 191 200 201 205 210 217 225 227 230 228 231 228 235 247 250 244 246 252 259 268 278 282 288 293 300 308 312 312
140 141 145 156 165 177 173 180 186 186 150 160 165 175 183 187 191 201 209 212 210 218 222 219 220 228 230 237 248 248 243 242 247 258 265 269 280 290 299 310 308 310 311 312
149 119 138 151 134 155 150 175 182 177 183 182 169 177 187 199 197 207 201 208 212 203 205 224 222 222 231 238 250 237 232 231 253 256 256 269 287 301 313 312 312 314 317 316
126 130 143 153 145 150 156 169 169 164 170 169 173 176 174 183 186 188 187 189 188 195 203 217 224 227 236 245 244 240 232 229 257 256 258 275 291 302 310 314 319 318 316 313
137 142 147 146 149 148 148 164 179 165 177 183 183 182 190 196 197 199 204 209 216 219 226 230 234 238 241 245 242 242 237 239 255 252 263 280 292 300 304 313 320 321 317 310
169 146 138 137 142 158 164 158 171 182 180 177 181 189 195 188 190 205 199 206 215 221 230 237 243 239 242 245 244 240 241 243 244 256 273 286 293 296 303 311 316 321 318 309
155 162 153 161 156 165 171 171 182 182 185 190 185 183 185 195 199 198 195 209 221 219 227 233 235 236 238 239 242 244 244 243 251 265 275 286 289 292 301 306 313 320 316 308
Height
5594 5602 5614 5647 5665 5681 5690 5694 5703 5709 5720 5726 5739 5744 5755 5759 5766 5771 5776 5780 5786 5790 5794 5798 5802 5807 5812 5816 5821 5824 5828 5831 5834 5838 5842 5845 5846 5846 5846 5846 5846 5845 5844 5843
5568 5581 5621 5636 5648 5660 5672 5681 5692 5701 5708 5714 5729 5736 5744 5751 5759 5765 5770 5775 5781 5785 5788 5791 5795 5800 5803 5811 5814 5817 5821 5824 5827 5830 5834 5836 5838 5839 5839 5839 5840 5838 5837 5835
5555 5588 5605 5616 5629 5641 5654 5671 5684 5692 5697 5704 5717 5727 5736 5744 5751 5757 5764 5769 5774 5779 5783 5785 5791 5795 5798 5804 5806 5809 5813 5817 5820 5823 5826 5829 5831 5832 5831 5832 5831 5830 5829 5828
5554 5574 5584 5598 5609 5628 5641 5662 5675 5683 5687 5696 5704 5720 5726 5734 5742 5750 5758 5763 5767 5772 5776 5778 5784 5788 5792 5797 5800 5803 5807 5810 5813 5817 5819 5822 5824 5824 5823 5824 5824 5822 5821 5820
5555 5561 5574 5584 5601 5618 5636 5650 5663 5675 5685 5689 5697 5709 5719 5727 5734 5743 5750 5756 5760 5765 5769 5772 5777 5782 5786 5790 5795 5798 5801 5803 5806 5809 5812 5814 5815 5816 5816 5816 5815 5814 5812 5810
5547 5558 5569 5583 5591 5606 5630 5644 5655 5668 5678 5679 5692 5705 5713 5716 5726 5732 5743 5749 5755 5759 5763 5767 5769 5773 5780 5785 5788 5792 5794 5798 5800 5802 5804 5805 5806 5806 5807 5807 5807 5806 5803 5802
5541 5548 5561 5575 5585 5597 5616 5631 5642 5657 5665 5674 5686 5694 5713 5713 5718 5725 5735 5742 5747 5750 5757 5761 5765 5769 5773 5777 5782 5785 5788 5790 5792 5794 5796 5798 5799 5799 5799 5798 5798 5797 5796 5794
5538 5545 5552 5566 5578 5589 5601 5619 5626 5637 5652 5668 5678 5684 5697 5699 5706 5717 5726 5730 5736 5746 5750 5755 5758 5765 5768 5771 5775 5778 5781 5784 5785 5788 5789 5790 5791 5791 5791 5791 5790 5789 5787 5785
5540 5548 5554 5562 5573 5587 5599 5611 5629 5646 5658 5671 5677 5681 5682 5693 5700 5709 5714 5725 5734 5735 5741 5749 5753 5756 5760 5765 5769 5772 5775 5778 5780 5782 5783 5784 5784 5785 5785 5784 5783 5781 5779 5777
5542 5548 5554 5560 5570 5582 5592 5610 5621 5636 5652 5663 5671 5669 5677 5683 5691 5703 5711 5720 5725 5731 5735 5740 5745 5751 5756 5760 5763 5766 5768 5771 5774 5776 5777 5778 5778 5778 5778 5777 5776 5774 5772 5770
5544 5547 5552 5560 5564 5574 5587 5602 5617 5637 5648 5658 5664 5670 5674 5678 5687 5697 5704 5711 5718 5724 5730 5736 5740 5744 5748 5752 5756 5759 5761 5764 5766 5768 5770 5771 5772 5771 5771 5770 5769 5768 5766 5763
5544 5546 5549 5555 5564 5576 5591 5598 5613 5624 5636 5646 5657 5663 5662 5666 5678 5691 5700 5707 5713 5719 5725 5730 5735 5738 5742 5746 5749 5752 5755 5757 5759 5761 5763 5764 5765 5765 5764 5764 5763 5762 5760 5758
5544 5546 5551 5557 5564 5570 5579 5598 5612 5622 5636 5644 5648 5650 5654 5664 5673 5682 5692 5701 5707 5713 5719 5724 5729 5732 5737 5740 5743 5746 5748 5751 5753 5755 5756 5758 5759 5759 5758 5758 5757 5756 5753 5752
5545 5548 5552 5557 5564 5573 5577 5592 5606 5620 5625 5635 5640 5645 5652 5660 5667 5677 5686 5694 5701 5707 5713 5718 5723 5727 5732 5735 5738 5741 5743 5745 5748 5750 5751 5752 5753 5753 5753 5752 5751 5749 5747 5744
5548 5549 5553 5557 5565 5575 5585 5593 5607 5616 5626 5635 5632 5640 5652 5659 5665 5674 5682 5690 5697 5703 5709 5715 5720 5724 5727 5730 5733 5736 5738 5741 5743 5745 5745 5746 5747 5747 5746 5745 5745 5743 5740 5736
5548 5552 5556 5560 5565 5572 5586 5597 5608 5619 5628 5627 5635 5640 5647 5655 5662 5670 5679 5687 5693 5699 5705 5711 5714 5718 5722 5725 5728 5731 5734 5736 5738 5739 5740 5740 5740 5740 5740 5739 5738 5735 5732 5729
5555 5557 5557 5565 5572 5581 5587 5598 5608 5615 5621 5627 5626 5635 5643 5650 5659 5668 5676 5683 5689 5696 5701 5705 5710 5713 5717 5720 5724 5727 5729 5730 5732 5732 5733 5734 5734 5734 5734 5733 5731 5728 5725 5722
5559 5560 5566 5569 5573 5580 5593 5601 5605 5613 5619 5622 5623 5631 5642 5650 5657 5664 5671 5679 5686 5692 5697 5701 5705 5709 5713 5716 5719 5722 5723 5725 5725 5725 5727 5728 5729 5729 5727 5726 5724 5721 5718 5714
5560 5564 5570 5575 5576 5584 5591 5600 5610 5615 5613 5608 5622 5630 5637 5646 5653 5661 5668 5675 5682 5688 5694 5698 5701 5705 5709 5712 5715 5717 5718 5719 5720 5721 5722 5723 5724 5723 5722 5720 5718 5715 5711 5707
5568 5572 5574 5574 5579 5585 5591 5596 5601 5598 5603 5609 5621 5633 5640 5647 5654 5661 5668 5674 5680 5685 5690 5694 5698 5701 5704 5706 5709 5711 5712 5713 5715 5716 5718 5719 5718 5717 5716 5714 5710 5707 5702 5698
5573 5571 5577 5581 5584 5585 5593 5599 5605 5612 5615 5617 5623 5633 5640 5645 5654 5661 5666 5671 5676 5681 5685 5689 5693 5696 5699 5702 5704 5705 5706 5709 5711 5712 5713 5713 5712 5711 5708 5705 5703 5699 5696 5691
5574 5573 5578 5584 5585 5591 5595 5604 5610 5614 5616 5620 5626 5632 5639 5647 5652 5657 5663 5668 5673 5678 5681 5686 5689 5692 5695 5698 5698 5699 5702 5704 5706 5706 5707 5707 5705 5703 5701 5699 5696 5692 5688 5683
5582 5583 5586 5591 5593 5596 5598 5603 5612 5615 5620 5625 5632 5636 5640 5646 5652 5657 5661 5666 5670 5674 5678 5682 5686 5688 5690 5692 5693 5694 5696 5698 5699 5700 5701 5700 5698 5697 5694 5692 5689 5685 5680 5675
5586 5588 5590 5593 5596 5600 5604 5608 5615 5620 5625 5629 5632 5637 5642 5647 5652 5657 5661 5665 5668 5672 5676 5679 5681 5683 5684 5686 5687 5688 5689 5691 5693 5694 5695 5693 5692 5690 5688 5684 5680 5677 5672 5666
5590 5592 5594 5596 5600 5603 5608 5612 5617 5622 5627 5631 5635 5640 5644 5648 5652 5655 5659 5663 5666 5669 5672 5674 5676 5677 5678 5680 5682 5683 5684 5685 5687 5688 5687 5686 5685 5682 5680 5677 5672 5669 5664 5658
5592 5594 5597 5600 5602 5606 5610 5615 5620 5624 5628 5633 5636 5640 5644 5648 5651 5654 5658 5661 5664 5666 5668 5670 5671 5673 5674 5675 5676 5678 5679 5680 5681 5681 5680 5679 5677 5675 5673 5669 5664 5660 5655 5651